Probability
0 0 0 0 0 0 0 0 0 0 0 0 0 0 0 0 0 0 0 0 0 0 0 0 0 0 0 0 0 0 0 0 0 0 0 0 0 0 0 0 0 0 0 0
0 0 0 0 0 0 0 0 0 0 0 0 0 0 0 0 0 0 0 0 0 0 0 0 0 0 0 0 0 0 0 0 0 0 0 0 0 0 0 0 0 0 0 0
0 0 0 0 0 0 0 0 0 0 0 0 0 0 0 0 0 0 0 0 0 0 0 0 0 0 0 0 0 0 0 0 0 0 0 0 0 0 0 0 0 0 0 0
0 0 0 0 0 0 0 0 0 0 0 0 0 0 0 0 0 0 0 0 0 0 0 0 0 0 0 0 0 0 0 0 0 0 0 0 0 0 0 0 0 0 0 0
0 0 0 0 0 0 0 0 0 0 0 0 0 0 0 0 0 0 0 0 0 0 0 0 0 0 0 0 0 0 0 0 0 0 0 0 0 0 0 0 0 0 0 0
0 0 0 0 0 0 0 0 0 0 0 0 0 0 0 0 0 0 0 0 0 0 0 0 0 0 0 0 0 0 0 0 0 0 0 0 0 0 0 0 0 0 0 0
0 0 0 0 0 0 0 0 0 0 0 0 0 0 0 0 0 0 0 0 0 0 0 0 0 0 0 0 0 0 0 0 0 0 0 0 0 0 0 0 0 0 0 0
0 0 0 0 0 0 0 0 0 0 0 0 0 0 0 0 0 0 0 0 0 0 0 0 0 0 0 0 0 0 0 0 0 0 0 0 0 0 0 0 0 0 0 0
0 0 0 0 0 0 0 0 0 0 0 0 0 0 0 0 0 0 0 0 0 0 0 0 0 0 0 0 0 0 0 0 0 0 0 0 0 0 0 0 0 0 0 0
0 0 0 0 0 0 0 0 0 0 0 0 0 0 0 0 0 0 0 0 0 0 0 0 0 0 0 0 0 0 0 0 0 0 0 0 0 0 0 0 0 0 0 0
0 0 0 0 0 0 0 0 0 0 0 0 0 0 0 0 0 0 0 0 0 0 0 0 0 0 0 0 0 0 0 0 0 0 0 0 0 0 0 0 0 0 0 0
0 0 0 0 0 0 0 0 0 0 0 0 0 0 0 0 0 0 0 0 0 0 0 0 0 0 0 0 0 0 0 0 0 0 0 0 0 0 0 0 0 0 0 0
0 0 0 0 0 0 0 0 0 0 0 0 0 0 0 0 0 0 0 0 0 0 0 0 0 0 0 0 0 0 0 0 0 0 0 0 0 0 0 0 0 0 0 0
0 0 0 0 0 0 0 0 0 0 0 0 0 0 0 0 0 0 0 0 0 0 0 0 0 0 0 0 0 0 0 0 0 0 0 0 0 0 0 0 0 0 0 0
0 0 0 0 0 0 0 0 0 0 0 0 0 0 0 0 0 0 0 0 0 0 0 0 0 0 0 0 0 0 0 0 0 0 0 0 0 0 0 0 0 0 0 0
0 0 0 0 0 0 0 0 0 0 0 0 0 0 0 0 0 0 0 0 0 0 0 0 0 0 0 0 0 0 0 0 0 0 0 0 0 0 0 0 0 0 0 0
0 0 0 0 0 0 0 0 0 0 0 0 0 0 0 0 0 0 0 0 0 0 0 0 0 0 0 0 0 0 0 0 0 0 0 0 0 0 0 0 0 0 0 0
0 0 0 0 0 0 0 0 0 0 0 0 0 0 0 0 0 0 0 0 0 0 0 0 0 0 0 0 0 0 0 0 0 0 0 0 0 0 0 0 0 0 0 0
0 0 0 0 0 0 0 0 0 0 0 0 0 0 0 0 0 0 0 0 0 0 0 0 0 0 0 0 0 0 0 0 0 0 0 0 0 0 0 0 0 0 0 0
0 0 0 0 0 0 0 0 0 0 0 0 0 0 0 0 0 0 0 0 0 0 0 0 0 0 0 0 0 0 0 0 0 0 0 0 0 0 0 0 0 0 0 0
0 0 0 0 0 0 0 0 0 0 0 0 0 0 0 0 0 0 0 0 0 0 0 0 0 0 0 0 0 0 0 0 0 0 0 0 0 0 0 0 0 0 0 0
0 0 0 0 0 0 0 0 0 0 0 0 0 0 0 0 0 0 0 0 0 0 0 0 0 0 0 0 0 0 0 0 0 0 0 0 0 0 0 0 0 0 0 0
0 0 0 0 0 0 0 0 0 0 0 0 0 0 0 0 0 0 0 0 0 0 0 0 0 0 0 0 0 0 0 0 0 0 0 0 0 0 0 0 0 0 0 0
0 0 0 0 0 0 0 0 0 0 0 0 0 0 0 0 0 0 0 0 0 0 0 0 0 0 0 0 0 0 0 0 0 0 0 0 0 0 0 0 0 0 0 0
0 0 0 0 0 0 0 0 0 0 0 0 0 0 0 0 0 0 0 0 0 0 0 0 0 0 0 0 0 0 0 0 0 0 0 0 0 0 0 0 0 0 0 0
0 0 0 0 0 0 0 0 0 0 0 0 0 0 0 0 0 0 0 0 0 0 0 0 0 0 0 0 0 0 0 0 0 0 0 0 0 0 0 0 0 0 0 0
Height
5755 5754 5751 5749 5746 5744 5741 5739 5737 5735 5732 5730 5728 5725 5723 5720 5718 5716 5713 5710 5708 5706 5705 5703 5702 5700 5699 5697 5695 5694 5692 5691 5690 5690 5690 5689 5689 5689 5689 5690 5691 5692 5693 5694
5751 5748 5746 5742 5740 5738 5736 5733 5731 5728 5725 5722 5720 5718 5716 5713 5710 5707 5705 5702 5699 5696 5694 5693 5691 5689 5687 5685 5683 5682 5680 5679 5678 5678 5677 5677 5677 5676 5676 5676 5677 5677 5678 5679
5745 5743 5739 5737 5734 5732 5729 5727 5724 5721 5718 5714 5712 5710 5708 5705 5702 5699 5696 5692 5689 5687 5684 5682 5680 5678 5676 5674 5672 5670 5669 5667 5666 5665 5664 5664 5663 5663 5663 5663 5663 5663 5664 5665
5739 5736 5733 5730 5728 5725 5723 5720 5716 5713 5710 5707 5704 5701 5701 5697 5693 5690 5686 5683 5679 5676 5674 5671 5669 5667 5665 5663 5660 5658 5657 5655 5654 5652 5652 5651 5650 5650 5649 5649 5649 5649 5650 5650
5733 5730 5727 5724 5722 5718 5715 5712 5709 5705 5702 5700 5697 5692 5693 5689 5685 5681 5677 5673 5669 5666 5663 5661 5658 5656 5654 5651 5649 5647 5645 5643 5641 5640 5639 5638 5637 5636 5636 5635 5635 5635 5635 5635
5727 5724 5721 5718 5714 5711 5708 5705 5701 5697 5694 5692 5690 5685 5683 5680 5676 5672 5668 5664 5660 5656 5653 5650 5647 5645 5643 5640 5637 5635 5633 5630 5629 5627 5626 5625 5624 5623 5622 5621 5621 5621 5620 5620
5721 5718 5714 5711 5707 5704 5701 5697 5693 5688 5686 5684 5681 5676 5675 5671 5667 5663 5659 5655 5650 5646 5643 5639 5637 5634 5631 5629 5626 5623 5620 5618 5616 5614 5612 5611 5610 5608 5607 5606 5606 5606 5605 5605
5713 5711 5707 5703 5700 5696 5693 5689 5686 5681 5677 5674 5672 5668 5667 5663 5658 5653 5649 5645 5641 5637 5633 5629 5626 5623 5620 5617 5614 5611 5608 5605 5603 5601 5599 5597 5596 5594 5593 5592 5591 5591 5590 5590
5704 5702 5699 5695 5692 5689 5684 5681 5678 5673 5668 5665 5663 5660 5658 5653 5649 5644 5640 5635 5631 5627 5623 5619 5616 5612 5609 5605 5602 5599 5596 5593 5590 5588 5586 5584 5582 5580 5578 5577 5576 5575 5575 5575
5696 5693 5691 5688 5684 5680 5677 5673 5669 5664 5659 5655 5653 5651 5648 5643 5639 5635 5631 5626 5621 5617 5613 5609 5606 5602 5598 5594 5590 5587 5584 5581 5578 5575 5573 5571 5568 5566 5564 5563 5561 5560 5559 5559
5688 5685 5682 5679 5676 5672 5669 5665 5660 5655 5651 5647 5643 5645 5639 5634 5629 5625 5621 5616 5611 5607 5603 5599 5595 5591 5586 5582 5579 5575 5572 5568 5565 5563 5560 5557 5555 5553 5550 5548 5547 5545 5545 5545
5679 5675 5673 5670 5667 5662 5659 5656 5651 5648 5643 5638 5633 5636 5629 5624 5619 5615 5611 5606 5601 5597 5593 5589 5584 5580 5576 5572 5568 5564 5560 5556 5553 5550 5547 5544 5541 5539 5536 5534 5532 5531 5530 5530
5670 5667 5663 5661 5660 5655 5650 5647 5642 5638 5633 5629 5625 5626 5619 5615 5609 5605 5601 5596 5591 5587 5583 5578 5574 5569 5565 5561 5557 5552 5548 5545 5541 5537 5534 5531 5528 5525 5522 5520 5518 5517 5517 5516
5660 5658 5655 5652 5648 5644 5641 5637 5633 5628 5624 5620 5617 5615 5611 5605 5600 5595 5590 5586 5581 5577 5572 5568 5563 5558 5554 5550 5545 5541 5537 5532 5529 5525 5522 5518 5515 5512 5509 5507 5505 5504 5503 5503
5650 5648 5645 5642 5638 5634 5631 5628 5623 5619 5615 5611 5608 5604 5600 5595 5590 5585 5580 5575 5571 5566 5561 5557 5552 5548 5543 5539 5534 5529 5525 5520 5516 5513 5509 5505 5502 5499 5496 5494 5492 5491 5490 5489
5640 5637 5635 5632 5628 5624 5621 5619 5614 5610 5605 5601 5597 5594 5590 5584 5579 5575 5570 5565 5560 5555 5551 5546 5541 5537 5533 5528 5523 5518 5513 5509 5504 5500 5496 5493 5490 5487 5484 5482 5480 5478 5477 5476
5630 5627 5624 5622 5618 5613 5612 5611 5605 5600 5596 5592 5587 5584 5578 5574 5569 5564 5559 5554 5549 5545 5540 5535 5531 5526 5521 5516 5511 5507 5502 5497 5493 5488 5484 5481 5477 5475 5472 5469 5467 5465 5464 5463
5621 5617 5613 5610 5608 5604 5605 5600 5595 5590 5587 5582 5576 5572 5568 5563 5558 5553 5548 5543 5538 5534 5529 5525 5520 5515 5510 5505 5500 5495 5490 5486 5481 5477 5473 5469 5465 5463 5460 5457 5455 5453 5452 5450
5611 5607 5603 5600 5596 5594 5594 5590 5584 5580 5577 5572 5566 5562 5557 5552 5547 5543 5537 5532 5528 5523 5518 5514 5509 5504 5499 5494 5488 5483 5479 5474 5470 5465 5461 5457 5454 5451 5448 5446 5443 5441 5440 5438
5600 5597 5595 5590 5586 5583 5585 5580 5574 5570 5567 5563 5556 5551 5546 5541 5537 5534 5527 5522 5517 5512 5507 5502 5497 5492 5487 5482 5477 5472 5467 5463 5458 5454 5450 5446 5443 5440 5437 5435 5432 5430 5428 5427
5591 5587 5584 5580 5575 5573 5573 5568 5563 5560 5557 5551 5546 5541 5536 5531 5527 5522 5517 5512 5506 5501 5496 5491 5486 5481 5476 5471 5466 5461 5456 5451 5447 5443 5439 5435 5432 5429 5426 5424 5421 5419 5417 5415
5580 5577 5574 5570 5566 5567 5562 5557 5554 5550 5545 5540 5535 5530 5525 5521 5516 5511 5506 5501 5496 5491 5485 5480 5475 5470 5464 5459 5455 5450 5445 5440 5436 5431 5428 5424 5421 5418 5416 5413 5410 5408 5406 5404
5570 5568 5564 5562 5560 5555 5551 5547 5543 5539 5535 5530 5525 5520 5515 5510 5506 5501 5495 5490 5485 5480 5475 5469 5464 5459 5454 5448 5443 5439 5434 5429 5425 5421 5417 5414 5411 5408 5405 5403 5400 5398 5396 5395
5560 5557 5554 5551 5549 5545 5541 5537 5533 5529 5524 5519 5515 5510 5505 5500 5495 5490 5485 5479 5474 5469 5464 5459 5453 5448 5443 5438 5433 5428 5424 5420 5415 5411 5408 5405 5402 5399 5396 5393 5391 5389 5387 5385
5550 5546 5543 5541 5539 5535 5531 5527 5523 5518 5514 5509 5505 5500 5495 5490 5485 5480 5474 5469 5463 5458 5453 5448 5443 5438 5433 5428 5423 5418 5414 5410 5406 5402 5399 5396 5393 5390 5387 5384 5382 5380 5379 5376
5540 5537 5534 5531 5529 5525 5522 5517 5513 5508 5504 5499 5495 5490 5485 5480 5475 5469 5464 5458 5453 5448 5443 5438 5433 5428 5423 5418 5414 5409 5405 5401 5397 5394 5391 5387 5384 5382 5379 5376 5374 5371 5370 5368
Wind_Speed
22 23 23 23 24 25 26 26 27 28 29 29 29 29 30 31 32 33 34 35 37 38 38 40 41 42 42 43 44 44 45 45 45 45 46 46 47 48 48 49 49 50 51 51
23 23 24 24 25 26 27 28 28 29 30 31 31 31 31 32 33 34 35 36 37 38 39 40 41 42 43 44 44 45 45 45 46 46 47 48 49 49 49 49 49 50 51 52
24 24 25 26 26 27 28 29 29 30 31 32 33 32 32 34 34 35 37 38 38 39 40 41 42 42 43 43 44 45 45 46 46 47 47 48 49 49 49 49 49 50 51 52
25 26 27 27 28 29 29 30 30 31 31 32 33 34 32 34 35 36 37 38 39 40 40 41 41 41 42 43 44 45 45 46 46 47 47 48 49 49 49 49 50 50 51 52
26 27 28 29 29 30 31 31 32 32 33 33 33 35 34 35 36 36 37 38 39 39 40 40 40 41 42 42 44 45 45 46 46 47 48 49 49 49 49 49 50 51 52 52
28 29 30 31 31 31 32 33 33 34 35 35 35 36 35 36 36 37 38 38 38 39 40 41 41 42 42 43 44 45 46 47 48 48 49 49 49 49 50 50 50 51 51 52
30 31 32 32 32 33 33 34 35 36 37 37 36 38 37 37 37 38 38 39 39 39 40 41 42 43 43 44 46 46 47 48 48 48 48 49 49 50 50 51 51 51 51 52
32 32 33 33 34 34 34 35 36 38 39 39 38 39 38 38 38 38 39 39 40 40 41 41 42 42 44 45 46 47 48 48 48 48 49 49 49 50 51 51 50 51 51 51
33 34 34 34 35 35 36 36 37 39 41 41 41 40 39 39 40 39 39 39 40 40 41 41 42 43 44 45 45 46 47 47 48 48 48 49 49 49 50 50 51 51 51 51
35 36 35 35 36 36 37 37 38 39 41 43 43 41 41 40 40 40 40 40 41 41 41 41 42 43 44 45 45 45 45 46 47 47 48 48 48 48 49 49 50 51 51 50
36 37 37 37 37 37 38 38 39 40 42 43 44 42 41 41 41 42 42 42 42 41 41 42 42 43 43 44 45 45 45 45 46 46 47 47 48 49 49 49 49 49 49 49
37 38 38 38 38 38 38 38 39 40 41 43 44 43 41 42 42 42 42 42 42 41 41 42 43 43 43 44 45 45 45 45 45 46 46 47 48 49 49 49 49 48 48 48
38 39 40 39 39 39 39 38 39 41 42 43 43 42 41 42 42 42 42 42 43 42 42 43 43 44 43 43 44 44 44 45 46 46 46 47 47 47 48 48 48 47 47 47
40 40 40 40 40 40 40 40 40 41 42 42 42 41 40 42 42 42 42 43 43 44 44 44 44 43 43 43 43 44 44 45 45 45 46 46 47 47 46 46 46 46 46 46
41 42 41 41 41 41 41 40 40 41 41 43 42 42 42 43 43 43 44 44 45 45 45 44 43 43 43 43 44 44 43 44 44 45 45 45 45 45 44 44 44 45 45 45
41 42 42 41 40 41 41 39 40 41 41 42 42 43 43 44 44 44 45 45 45 45 44 43 43 43 43 43 44 44 43 44 44 44 44 44 44 43 43 43 43 43 44 44
40 41 41 41 40 41 41 40 40 41 41 42 43 43 43 44 44 45 45 46 45 45 44 43 42 43 43 43 44 44 43 43 43 43 43 43 43 42 42 43 42 42 42 43
39 40 41 41 41 42 41 40 40 41 41 42 43 43 44 44 44 45 45 45 45 44 44 43 43 43 43 44 44 43 42 42 43 43 42 41 41 41 41 41 41 40 41 41
40 40 40 41 41 42 40 40 41 41 41 42 43 44 44 44 44 44 44 44 44 45 44 44 44 44 44 44 44 43 42 42 42 42 41 40 39 39 38 38 39 39 39 39
39 40 40 40 42 42 41 41 41 43 42 42 43 43 44 44 44 43 44 44 44 44 44 44 44 44 44 44 43 43 42 42 42 41 40 39 38 38 37 37 38 37 37 37
40 40 40 41 42 42 42 41 41 42 42 42 42 43 44 44 44 43 43 44 44 44 44 44 44 44 44 43 43 43 42 42 42 41 39 38 37 37 36 36 36 36 36 36
40 40 39 40 42 41 41 41 41 42 42 43 43 43 43 43 43 43 43 43 43 43 43 44 43 43 43 43 42 42 42 41 41 40 39 37 36 36 36 35 35 34 34 34
40 40 40 40 40 40 40 41 41 41 42 42 42 42 43 43 43 43 43 43 43 43 43 43 43 43 42 42 42 41 40 40 39 38 37 36 35 35 34 33 33 32 32 32
40 40 40 40 39 39 40 40 41 41 41 41 42 42 42 43 43 43 43 43 43 43 43 43 42 42 42 42 42 40 39 38 37 36 34 34 34 33 32 32 31 31 30 30
39 40 40 39 38 38 39 39 40 41 41 41 41 42 42 43 43 43 43 43 43 43 42 42 41 41 41 40 39 38 37 36 35 34 34 33 32 31 31 30 30 29 29 29
37 38 38 37 38 38 39 39 40 41 41 41 41 42 42 42 43 43 43 43 42 41 41 41 40 39 38 37 36 36 35 34 33 32 32 31 31 30 29 28 28 27 27 27
Wind_Direction
296 296 297 296 295 294 293 293 293 292 291 291 291 290 289 288 288 287 286 285 282 280 280 279 279 279 279 278 277 277 275 273 272 271 269 268 268 267 266 266 266 264 263 262
295 296 297 295 293 294 294 294 294 293 293 293 292 290 289 290 290 289 288 288 285 282 281 281 280 281 280 279 278 277 276 274 273 272 270 269 268 269 267 267 266 265 264 263
297 298 297 296 295 295 296 296 297 296 295 294 294 292 292 291 291 290 290 290 289 285 283 282 282 281 281 279 278 278 277 275 274 273 272 271 270 270 269 267 267 267 265 263
298 299 299 298 297 297 297 297 297 296 295 295 296 295 295 294 293 292 291 291 290 287 285 284 282 281 281 281 280 278 278 276 275 274 272 272 272 271 270 269 268 268 267 265
298 299 299 298 298 298 297 297 297 297 295 295 297 297 298 297 296 295 294 293 292 290 287 285 283 282 282 282 280 279 278 277 276 275 274 274 273 272 271 270 269 268 268 266
297 298 298 298 298 297 297 297 296 296 296 296 299 299 300 300 300 298 296 296 295 292 289 287 285 284 284 284 282 280 280 280 279 278 277 276 275 274 273 272 270 268 268 267
297 298 298 299 298 297 296 297 297 297 297 298 300 300 302 303 303 301 300 299 296 293 291 288 287 286 285 285 285 282 282 282 281 280 279 277 276 276 275 274 272 269 268 268
297 297 298 299 299 298 297 297 297 298 298 299 300 301 303 304 304 303 301 300 297 295 293 290 289 288 287 287 286 285 283 283 282 281 279 278 278 277 276 275 273 271 268 267
298 298 298 298 298 298 298 297 297 297 298 299 300 302 302 303 303 303 302 301 299 297 295 293 291 290 289 289 288 287 286 284 282 281 280 280 279 278 277 275 274 272 271 268
296 297 298 299 298 297 296 297 297 297 298 299 301 302 304 304 303 304 303 302 300 298 296 295 293 293 292 291 289 288 287 285 284 282 281 280 279 279 278 277 276 273 271 268
295 296 297 298 299 298 297 297 296 296 297 298 300 302 303 303 303 303 303 302 301 299 298 298 296 295 293 292 291 290 288 287 286 284 283 281 280 279 279 278 276 274 270 268
296 296 297 297 298 297 297 297 297 296 297 297 298 301 302 302 302 303 303 302 301 299 299 298 298 297 295 294 293 291 290 288 288 286 285 283 282 281 280 279 277 273 270 269
295 296 297 297 297 297 297 297 297 296 295 297 298 302 302 301 302 302 302 301 300 299 298 300 299 297 296 296 294 293 292 291 289 288 287 285 284 283 281 280 277 273 271 270
293 294 295 296 297 296 297 297 297 296 296 297 299 300 300 300 300 301 301 300 299 299 298 299 299 297 296 297 297 296 294 292 290 289 288 287 285 284 282 280 277 274 271 270
292 293 294 294 294 295 295 297 297 297 297 297 299 298 300 300 301 300 300 300 299 298 298 299 298 297 297 297 297 297 296 294 292 291 290 289 287 285 283 280 277 275 272 270
292 292 293 294 294 294 294 296 297 298 298 298 298 299 300 300 300 301 301 301 301 300 299 299 298 297 297 298 298 297 297 296 295 293 291 289 287 285 283 281 279 277 275 272
293 293 293 294 294 294 295 299 298 298 299 299 300 300 300 300 300 300 300 301 301 300 299 299 299 298 298 298 299 297 297 297 296 294 293 290 288 286 284 283 281 279 277 274
292 292 293 294 294 294 299 299 299 299 299 300 300 301 300 300 300 300 300 301 300 300 299 299 299 298 298 298 298 298 299 298 298 296 294 292 290 288 286 284 282 280 278 276
291 293 293 294 295 296 298 299 299 299 300 301 301 300 300 300 300 300 301 301 301 300 299 299 299 299 298 298 298 299 298 298 298 296 295 294 292 290 288 286 284 282 280 278
291 292 292 293 294 296 299 299 299 300 301 302 301 301 301 300 300 301 301 301 301 300 299 299 299 299 299 299 299 299 298 298 298 298 295 293 293 291 289 287 286 284 281 279
291 292 292 293 294 296 299 300 301 301 303 303 302 302 302 301 301 301 301 302 301 300 299 299 300 301 301 300 299 298 298 297 297 297 297 294 292 292 290 289 287 285 283 281
290 292 292 293 294 297 299 299 300 300 301 302 302 303 303 302 302 302 302 302 302 301 300 300 300 301 302 301 300 299 298 298 297 297 296 294 293 293 292 290 288 286 284 282
289 290 291 292 294 296 297 298 299 300 300 301 301 302 302 303 303 303 303 302 303 302 301 301 301 301 302 301 301 300 299 299 299 298 296 294 294 294 293 291 288 286 284 282
288 289 290 292 293 295 296 298 299 300 300 300 301 301 302 303 303 303 303 303 303 302 301 301 301 301 301 302 302 301 300 300 299 298 296 295 295 294 293 291 289 287 285 282
288 288 289 290 292 293 295 296 298 299 299 300 301 301 302 302 303 304 304 304 303 303 302 302 302 302 302 303 302 302 301 301 300 298 297 296 296 296 295 292 290 287 286 283
287 288 289 290 292 293 295 296 297 298 299 300 301 301 302 302 304 305 305 305 304 303 303 303 303 303 303 303 303 303 302 302 301 299 298 297 296 296 296 295 294 291 288 286